This is the latest recevied weather packets stored in our database for station/object PD2BVG. If no packets are shown the sender has not sent any weather packets the latest 10 day(s).
| Time | Temp. | Humidity | Pressure | Rain* | Wind** | Luminosity | Snow |
|---|---|---|---|---|---|---|---|
| 1787815911 | 18.89° C | 91% | 1009.8 hPa | 0 mm | - | 106 W/m² | - |
| 1787815854 | 18.89° C | 91% | 1009.8 hPa | 0 mm | - | 106 W/m² | - |
| 1787815795 | 18.89° C | 90% | 1009.8 hPa | 0 mm | - | 107 W/m² | - |
| 1787815732 | 18.89° C | 90% | 1009.8 hPa | 0 mm | - | 107 W/m² | - |
| 1787815671 | 18.89° C | 91% | 1009.8 hPa | 0 mm | - | 113 W/m² | - |
| 1787815612 | 18.89° C | 91% | 1009.8 hPa | 0 mm | - | 113 W/m² | - |
| 1787815552 | 18.89° C | 91% | 1009.8 hPa | 0 mm | - | 114 W/m² | - |
| 1787815492 | 18.89° C | 91% | 1009.7 hPa | 0 mm | - | 116 W/m² | - |
| 1787815431 | 18.89° C | 91% | 1009.7 hPa | 0 mm | - | 116 W/m² | - |
| 1787815370 | 18.89° C | 91% | 1009.8 hPa | 0 mm | - | 116 W/m² | - |
| 1787815311 | 18.89° C | 91% | 1009.8 hPa | 0 mm | - | 116 W/m² | - |
| 1787815253 | 18.33° C | 91% | 1009.8 hPa | 0 mm | - | 114 W/m² | - |
| 1787815191 | 18.33° C | 91% | 1009.8 hPa | 0 mm | - | 113 W/m² | - |
| 1787815131 | 18.33° C | 91% | 1009.8 hPa | 0 mm | - | 111 W/m² | - |
| 1787815071 | 18.33° C | 91% | 1009.8 hPa | 0 mm | - | 109 W/m² | - |
| 1787815012 | 18.33° C | 92% | 1009.7 hPa | 0 mm | - | 107 W/m² | - |
| 1787814951 | 18.33° C | 92% | 1009.7 hPa | 0 mm | - | 102 W/m² | - |
| 1787814892 | 18.33° C | 92% | 1009.8 hPa | 0 mm | - | 99 W/m² | - |
| 1787814833 | 18.33° C | 92% | 1009.8 hPa | 0 mm | - | 97 W/m² | - |
| 1787814773 | 18.33° C | 92% | 1009.6 hPa | 0 mm | - | 95 W/m² | - |
| 1787814711 | 18.33° C | 92% | 1009.7 hPa | 0 mm | - | 92 W/m² | - |
| 1787814651 | 18.33° C | 92% | 1009.6 hPa | 0 mm | - | 92 W/m² | - |
| 1787814591 | 18.33° C | 92% | 1009.6 hPa | 0 mm | - | 90 W/m² | - |
| 1787814530 | 18.33° C | 92% | 1009.6 hPa | 0 mm | - | 90 W/m² | - |
| 1787814471 | 18.33° C | 92% | 1009.6 hPa | 0 mm | - | 90 W/m² | - |
* Rain latest hour (hover to see other rain measurements)
** Current wind speed in m/s (hover to see current wind gust speed)